EW1708 Weather Reports


time (UTC)temp
F
wind
direction
speed
knots
gust
knots
rain 1hr
in
rain 24hr
in
rain mn
in
humidity
%
barometer
mb
20260504034847 56 328 13.9 21.7 0.00 0.00 0.00 39 999.3
20260504033853 56 328 13.9 25.2 0.00 0.00 0.00 38 999.1
20260504032855 57 320 14.8 25.2 0.00 0.00 0.00 38 998.9
20260504031830 57 0 13.9 22.6 0.00 0.00 0.00 39 998.8
20260504030827 56 342 9.6 16.5 0.00 0.00 0.00 41 998.6
20260504025836 57 333 10.4 21.7 0.00 0.00 0.00 41 998.4
20260504024813 58 0 11.3 23.5 0.00 0.00 0.00 42 998.5
20260504023823 58 0 13.0 23.5 0.00 0.00 0.00 43 998.0
20260504021643 57 0 12.2 22.6 0.00 0.00 0.00 47 997.9
20260504015537 57 13 13.9 26.1 0.00 0.00 0.00 51 997.8
20260504014547 58 17 21.7 32.2 0.00 0.00 0.00 47 997.7
20260504013548 60 13 19.1 32.2 0.00 0.00 0.00 42 997.5
20260504012607 61 15 18.2 35.6 0.00 0.00 0.00 40 997.1
20260504011550 62 346 21.7 35.6 0.00 0.00 0.00 39 997.0
20260504005430 64 13 18.2 27.8 0.00 0.00 0.00 37 996.4
20260504004444 65 0 19.1 33.0 0.00 0.00 0.00 36 996.1
20260504003455 70 338 19.1 33.0 0.00 0.00 0.00 30 995.5
20260504001336 71 287 19.1 27.8 0.00 0.00 0.00 29 995.3
20260504000354 72 306 20.9 33.9 0.00 0.00 0.00 28 995.3
20260503235331 72 306 21.7 33.9 0.00 0.00 0.00 28 995.4
20260503234314 72 310 20.9 33.0 0.00 0.00 0.00 28 995.5
20260503233240 73 313 20.9 33.0 0.00 0.00 0.00 27 995.4
20260503232210 74 316 20.0 32.2 0.00 0.00 0.00 25 995.4
20260503231159 74 327 19.1 29.5 0.00 0.00 0.00 25 995.3
20260503230130 75 306 20.0 33.9 0.00 0.00 0.00 24 995.3
20260503223943 76 313 20.0 32.2 0.00 0.00 0.00 22 995.3
20260503222939 76 304 20.0 29.5 0.00 0.00 0.00 24 995.1
20260503221907 75 296 16.5 26.1 0.00 0.00 0.00 27 995.4
20260503220911 74 323 18.2 29.5 0.00 0.00 0.00 30 995.4
20260503215901 75 261 20.0 29.5 0.00 0.00 0.00 27 995.5
20260503214856 74 271 18.2 28.7 0.00 0.00 0.00 27 996.0
20260503213904 74 286 17.4 26.1 0.00 0.00 0.00 27 996.3
20260503211735 76 228 20.0 31.3 0.00 0.00 0.00 23 996.8
20260503210707 76 263 20.9 31.3 0.00 0.00 0.00 22 997.1
20260503205636 77 246 20.0 30.4 0.00 0.00 0.00 22 997.4
20260503203503 75 263 18.2 31.3 0.00 0.00 0.00 24 998.1
20260503202501 76 270 19.1 31.3 0.00 0.00 0.00 24 998.3
20260503200314 75 282 19.1 28.7 0.00 0.00 0.00 24 999.0
20260503195330 76 267 20.0 31.3 0.00 0.00 0.00 23 999.3
20260503194317 75 253 16.5 31.3 0.00 0.00 0.00 25 999.5
20260503193248 74 250 15.6 26.9 0.00 0.00 0.00 25 999.9
20260503191153 73 268 13.9 27.8 0.00 0.00 0.00 26 1000.5
20260503190156 72 254 16.5 27.8 0.00 0.00 0.00 25 1000.8
20260503185202 72 248 13.9 24.3 0.00 0.00 0.00 24 1001.2
20260503182955 70 265 15.6 21.7 0.00 0.00 0.00 25 1001.7
20260503181937 70 265 13.0 21.7 0.00 0.00 0.00 26 1002.1
20260503180935 70 271 12.2 21.7 0.00 0.00 0.00 26 1002.4
20260503174837 71 267 14.8 23.5 0.00 0.00 0.00 24 1002.8
20260503173838 71 267 16.5 23.5 0.00 0.00 0.00 25 1003.1
20260503172812 71 279 13.0 20.9 0.00 0.00 0.00 26 1003.3
20260503170709 70 269 14.8 23.5 0.00 0.00 0.00 25 1003.9
20260503150650 64 223 11.3 18.2 0.00 0.00 0.00 35 1006.1
20260503131148 50 235 11.3 17.4 0.00 0.00 0.00 57 1007.6
20260503130138 49 228 10.4 16.5 0.00 0.00 0.00 57 1007.7
20260503081412 37 214 2.6 4.3 0.00 0.00 0.00 74 1010.2
20260503080408 37 216 2.6 3.5 0.00 0.00 0.00 73 1010.2
20260503072244 38 244 2.6 3.5 0.00 0.00 0.00 71 1010.6
20260503071256 39 245 2.6 3.5 0.00 0.00 0.00 70 1010.6
20260503070227 39 245 2.6 4.3 0.00 0.00 0.00 70 1010.9
20260503053837 41 192 2.6 4.3 0.00 0.00 0.00 66 1010.9
20260503052828 42 194 3.5 5.2 0.00 0.00 0.00 65 1011.0
20260503051830 42 188 3.5 5.2 0.00 0.00 0.00 65 1010.9
20260503050805 43 175 3.5 4.3 0.00 0.00 0.00 65 1011.1
20260503045751 44 174 2.6 4.3 0.00 0.00 0.00 60 1011.1
20260503044759 46 167 1.7 3.5 0.00 0.00 0.00 59 1011.2
20260503043736 48 20 0.0 0.9 0.00 0.00 0.00 53 1011.2
20260503042713 50 19 0.0 0.9 0.00 0.00 0.00 49 1011.2
20260503041653 50 19 0.9 1.7 0.00 0.00 0.00 50 1011.3
20260503040639 50 20 0.9 1.7 0.00 0.00 0.00 50 1011.4
20260503035617 50 19 0.0 0.9 0.00 0.00 0.00 50 1011.5